TimeCET,TemperatureF,Dew PointF,Humidity,Sea Level PressureIn,VisibilityMPH,Wind Direction,Wind SpeedMPH,Gust SpeedMPH,PrecipitationIn,Events,Conditions,WindDirDegrees,DateUTC
12:20 AM,50.0,46.4,87,29.92,5.0,NNE,4.6,-,N/A,,Mostly Cloudy,30,2013-12-27 23:20:00
12:50 AM,50.0,46.4,87,29.92,5.0,North,3.5,-,N/A,,Mostly Cloudy,360,2013-12-27 23:50:00
1:00 AM,50,46,80,29.94,5,NNW,3.5,,,,Mist,340,2013-12-28 00:00:00
1:20 AM,50.0,46.4,87,29.92,5.0,North,3.5,-,N/A,,Mostly Cloudy,360,2013-12-28 00:20:00
1:50 AM,50.0,44.6,82,29.92,5.0,Variable,2.3,-,N/A,,Mostly Cloudy,0,2013-12-28 00:50:00
2:20 AM,48.2,44.6,87,29.95,5.0,NNW,3.5,-,N/A,,Mostly Cloudy,340,2013-12-28 01:20:00
2:50 AM,46.4,42.8,87,29.95,5.0,WNW,4.6,-,N/A,,Mostly Cloudy,300,2013-12-28 01:50:00
3:20 AM,48.2,44.6,87,29.95,5.0,North,3.5,-,N/A,,Mostly Cloudy,360,2013-12-28 02:20:00
3:50 AM,44.6,41.0,87,29.95,5.0,NNW,3.5,-,N/A,,Mostly Cloudy,340,2013-12-28 02:50:00
4:00 AM,45,42,85,29.96,5,NNW,2.3,,,,Mist,330,2013-12-28 03:00:00
4:20 AM,44.6,42.8,93,29.95,5.0,NW,3.5,-,N/A,,Mostly Cloudy,310,2013-12-28 03:20:00
4:50 AM,44.6,41.0,87,29.95,5.0,WNW,3.5,-,N/A,,Mostly Cloudy,300,2013-12-28 03:50:00
5:20 AM,42.8,41.0,93,29.98,5.0,WNW,3.5,-,N/A,,Mostly Cloudy,290,2013-12-28 04:20:00
5:50 AM,42.8,39.2,87,29.98,5.0,NW,3.5,-,N/A,,Mostly Cloudy,320,2013-12-28 04:50:00
6:20 AM,42.8,41.0,93,29.98,5.0,North,2.3,-,N/A,,Partly Cloudy,360,2013-12-28 05:20:00
6:50 AM,41.0,39.2,93,30.01,5.0,NW,3.5,-,N/A,,Unknown,320,2013-12-28 05:50:00
7:00 AM,42,39,87,30.01,6,NNW,3.5,,,,,340,2013-12-28 06:00:00
7:20 AM,42.8,41.0,93,30.01,-9999.0,NW,3.5,-,N/A,,Clear,320,2013-12-28 06:20:00
7:50 AM,44.6,41.0,87,30.01,-9999.0,NNW,3.5,-,N/A,,Clear,340,2013-12-28 06:50:00
8:20 AM,44.6,41.0,87,30.01,-9999.0,Variable,1.2,-,N/A,,Clear,0,2013-12-28 07:20:00
8:50 AM,46.4,42.8,87,30.01,-9999.0,NNW,2.3,-,N/A,,Clear,330,2013-12-28 07:50:00
9:20 AM,50.0,42.8,76,30.04,-9999.0,North,4.6,-,N/A,,Clear,360,2013-12-28 08:20:00
9:50 AM,50.0,44.6,82,30.04,-9999.0,NNW,4.6,-,N/A,,Clear,340,2013-12-28 08:50:00
10:00 AM,51,44,68,30.04,9,North,4.6,,,,,0,2013-12-28 09:00:00
10:20 AM,51.8,44.6,76,30.04,-9999.0,North,3.5,-,N/A,,Clear,10,2013-12-28 09:20:00
10:50 AM,53.6,44.6,72,30.04,-9999.0,North,2.3,-,N/A,,Clear,10,2013-12-28 09:50:00
11:20 AM,55.4,44.6,67,30.04,-9999.0,North,4.6,-,N/A,,Clear,350,2013-12-28 10:20:00
11:50 AM,57.2,44.6,63,30.04,-9999.0,North,3.5,-,N/A,,Clear,10,2013-12-28 10:50:00
12:20 PM,59.0,44.6,59,30.04,-9999.0,North,-9999.0,-,N/A,,Clear,0,2013-12-28 11:20:00
12:50 PM,59.0,44.6,59,30.04,-9999.0,NE,3.5,-,N/A,,Clear,40,2013-12-28 11:50:00
1:00 PM,58,45,52,30.03,9,NNE,3.5,,,,,20,2013-12-28 12:00:00
1:20 PM,59.0,44.6,59,30.01,-9999.0,Variable,2.3,-,N/A,,Clear,0,2013-12-28 12:20:00
1:50 PM,59.0,44.6,59,30.01,-9999.0,SSW,4.6,-,N/A,,Clear,200,2013-12-28 12:50:00
2:20 PM,59.0,44.6,59,30.01,-9999.0,South,5.8,-,N/A,,Clear,190,2013-12-28 13:20:00
2:50 PM,59.0,44.6,59,30.01,6.2,South,5.8,-,N/A,,Partly Cloudy,190,2013-12-28 13:50:00
3:50 PM,57.2,44.6,63,30.04,-9999.0,South,4.6,-,N/A,,Clear,190,2013-12-28 14:50:00
4:00 PM,57,46,56,30.03,9,SSW,4.6,,,,,200,2013-12-28 15:00:00
4:50 PM,55.4,44.6,67,30.04,-9999.0,South,2.3,-,N/A,,Clear,190,2013-12-28 15:50:00
5:20 PM,55.4,46.4,72,30.04,-9999.0,SSW,3.5,-,N/A,,Clear,200,2013-12-28 16:20:00
5:50 PM,51.8,44.6,76,30.04,-9999.0,West,3.5,-,N/A,,Clear,260,2013-12-28 16:50:00
6:50 PM,50.0,44.6,82,30.06,-9999.0,West,1.2,-,N/A,,Clear,270,2013-12-28 17:50:00
7:00 PM,50,45,78,30.08,9,West,1.2,,,,,280,2013-12-28 18:00:00
7:20 PM,48.2,44.6,87,30.06,-9999.0,Variable,1.2,-,N/A,,Clear,0,2013-12-28 18:20:00
7:50 PM,48.2,42.8,82,30.06,-9999.0,NE,2.3,-,N/A,,Clear,50,2013-12-28 18:50:00
8:20 PM,48.2,44.6,87,30.06,5.6,Variable,2.3,-,N/A,,Partly Cloudy,0,2013-12-28 19:20:00
8:50 PM,48.2,42.8,82,30.06,5.0,North,2.3,-,N/A,,Scattered Clouds,10,2013-12-28 19:50:00
9:20 PM,48.2,44.6,87,30.06,5.0,ENE,2.3,-,N/A,,Scattered Clouds,60,2013-12-28 20:20:00
9:50 PM,50.0,44.6,82,30.06,5.0,ENE,3.5,-,N/A,,Scattered Clouds,60,2013-12-28 20:50:00
10:00 PM,49,42,70,30.09,5,ENE,2.3,,,,Mist,60,2013-12-28 21:00:00
10:20 PM,48.2,42.8,82,30.06,5.0,Variable,1.2,-,N/A,,Scattered Clouds,0,2013-12-28 21:20:00
10:50 PM,46.4,41.0,81,30.09,5.0,NNW,2.3,-,N/A,,Scattered Clouds,340,2013-12-28 21:50:00
11:20 PM,46.4,42.8,87,30.06,5.0,North,3.5,-,N/A,,Scattered Clouds,360,2013-12-28 22:20:00
11:50 PM,48.2,42.8,82,30.06,4.3,Variable,2.3,-,N/A,,Mostly Cloudy,0,2013-12-28 22:50:00